Content
SEND FEEDBACK

Daily
Averages
Monthly
Summary
United States of America

EMPORIA, VIRGINIA


Home > North America > United States > Virginia
Elevation: 109 feet     Latitude: 36 42N     Longitude: 077 30W

WEATHER
 
SELECT A DAY
Number of Records: 293,646;   Date Range: 2/28/02 - 8/12/14
 
SHARE

PRINT THIS DATA

[ ← Previous Day ]
WEATHER ALMANAC - JANUARY 22, 2013
[ Next Day → ]
[ °C ]   °F
Weather ElementAverageHighLow
Temperature29.5 °F37.4 °F (12:55 am)17.6 °F (10:35 pm)
Dewpoint6 °F15.8 °F (12:55 am)-0.4 °F (3:15 pm)
Humidity39 %74 % (10:55 pm)25 % (1:55 pm)
Barometer30.19 in30.31 in (11:15 pm)29.96 in (12:55 am)
Wind Speed6 mph12.7 mph (9:15 am)
Wind Gust19.6 mph (11:35 am)
Weather ElementAverage
Visibility10 mi
Wind DirectionSSW (216.5 °)

Weather ElementTotal
Precipitation---
Heating Degree Days37.5 (Base 65)
Averaged from 68 records on January 22, 2013
WEATHER CONDITIONS BREAKOUT
WIND DIRECTION BREAKOUT
WEATHER BY HOUR - JANUARY 22, 2013
[ °C ]   °F
Local TimeTemperatureDewpointHumidityBarometerVisibilityWind DirectionWind SpeedGust SpeedPrecipitationEventsConditions
12:55 AM37.4 °F15.8 °F41 %29.96 in10.0 miWNW (290°)5.8 mphClear
1:15 AM37.4 °F14.0 °F38 %29.98 in10.0 miWest (260°)5.8 mphClear
1:35 AM37.4 °F14.0 °F38 %29.99 in10.0 miWNW (290°)3.5 mphClear
2:15 AM35.6 °F12.2 °F38 %30.00 in10.0 miWNW (290°)8.1 mphClear
2:35 AM35.6 °F10.4 °F35 %30.01 inWest (270°)6.9 mphClear
2:55 AM33.8 °F10.4 °F38 %30.02 in10.0 miWest (280°)6.9 mphClear
3:15 AM33.8 °F8.6 °F35 %30.03 in10.0 miWest (280°)4.6 mphClear
3:35 AM32.0 °F8.6 °F38 %30.04 in10.0 miWest (280°)4.6 mphClear
3:55 AM32.0 °F8.6 °F38 %30.04 in10.0 miWest (270°)4.6 mphClear
4:15 AM32.0 °F8.6 °F38 %30.05 in10.0 miWest (280°)4.6 mphClear
4:35 AM32.0 °F10.4 °F41 %30.06 in10.0 miWNW (290°)5.8 mphClear
4:55 AM32.0 °F10.4 °F41 %30.07 in10.0 miWest (280°)5.8 mphClear
5:15 AM32.0 °F10.4 °F41 %30.08 in10.0 miWNW (290°)5.8 mphClear
5:35 AM30.2 °F10.4 °F44 %30.10 in10.0 miWest (280°)4.6 mphClear
5:55 AM30.2 °F12.2 °F47 %30.11 in10.0 miWNW (290°)8.1 mphClear
6:15 AM30.2 °F10.4 °F44 %30.12 in10.0 miWNW (290°)4.6 mphClear
6:35 AM28.4 °F10.4 °F47 %30.14 in10.0 miCalmClear
6:55 AM28.4 °F10.4 °F47 %30.15 in10.0 miWest (270°)4.6 mphClear
7:15 AM28.4 °F10.4 °F47 %30.16 in10.0 miWNW (290°)5.8 mphClear
7:35 AM28.4 °F10.4 °F47 %30.17 inWNW (290°)6.9 mphClear
7:55 AM28.4 °F10.4 °F47 %30.18 in10.0 miNW (310°)6.9 mphClear
8:15 AM30.2 °F8.6 °F40 %30.19 in10.0 miWNW (290°)4.6 mphClear
8:35 AM30.2 °F6.8 °F37 %30.20 in10.0 miWNW (290°)10.4 mph18.4 mphClear
8:55 AM30.2 °F5.0 °F34 %30.21 in10.0 miWNW (300°)9.2 mphClear
9:15 AM32.0 °F5.0 °F32 %30.22 in10.0 miWNW (290°)12.7 mph18.4 mphClear
9:35 AM32.0 °F3.2 °F30 %30.23 in10.0 miWest (280°)11.5 mph17.3 mphClear
9:55 AM30.2 °F3.2 °F32 %30.24 in10.0 miWest (270°)10.4 mph17.3 mphClear
10:15 AM30.2 °F3.2 °F32 %30.24 in10.0 miWest (280°)12.7 mph17.3 mphClear
10:55 AM32.0 °F3.2 °F30 %30.23 in10.0 miWest (270°)10.4 mphClear
11:15 AM30.2 °F1.4 °F29 %30.23 in10.0 miWest (270°)10.4 mph18.4 mphClear
11:35 AM32.0 °F1.4 °F27 %30.23 in10.0 miWNW (300°)12.7 mph19.6 mphClear
11:55 AM32.0 °F1.4 °F27 %30.22 in10.0 miWest (270°)8.1 mph18.4 mphClear
12:15 PM32.0 °F1.4 °F27 %30.21 in10.0 miWest (270°)11.5 mph16.1 mphClear
12:35 PM32.0 °F1.4 °F27 %30.21 in10.0 miWest (270°)11.5 mph17.3 mphClear
12:55 PM32.0 °F1.4 °F27 %30.19 in10.0 miWSW (250°)11.5 mph17.3 mphClear
1:15 PM32.0 °F3.2 °F30 %30.19 in10.0 miWest (270°)10.4 mph19.6 mphClear
1:35 PM33.8 °F3.2 °F28 %30.18 in10.0 miSW (230°)11.5 mph19.6 mphClear
1:55 PM33.8 °F1.4 °F25 %30.18 in10.0 miWSW (250°)11.5 mph16.1 mphClear
2:15 PM33.8 °F1.4 °F25 %30.18 in10.0 miWest (260°)11.5 mph19.6 mphClear
2:35 PM32.0 °F1.4 °F27 %30.19 inWSW (250°)12.7 mph18.4 mphClear
2:55 PM32.0 °F1.4 °F27 %30.19 in10.0 miWest (270°)8.1 mph18.4 mphClear
3:15 PM32.0 °F-0.4 °F25 %30.20 inWest (260°)9.2 mph19.6 mphClear
3:35 PM32.0 °F-0.4 °F25 %30.20 in10.0 miWest (270°)10.4 mph18.4 mphClear
3:55 PM32.0 °F-0.4 °F25 %30.20 in10.0 miWNW (290°)9.2 mphClear
4:15 PM32.0 °F-0.4 °F25 %30.21 in10.0 miWest (270°)8.1 mphClear
4:35 PM32.0 °F-0.4 °F25 %30.22 in10.0 miWNW (290°)8.1 mphClear
4:55 PM32.0 °F1.4 °F27 %30.23 in10.0 miWest (270°)6.9 mphClear
5:15 PM30.2 °F-0.4 °F27 %30.23 in10.0 miWest (260°)9.2 mphClear
5:35 PM30.2 °F-0.4 °F27 %30.24 in10.0 miWest (280°)3.5 mphClear
5:55 PM28.4 °F-0.4 °F29 %30.25 inWNW (300°)4.6 mphClear
6:15 PM28.4 °F-0.4 °F29 %30.25 in10.0 miWest (280°)3.5 mphClear
6:35 PM28.4 °F1.4 °F31 %30.26 in10.0 miCalmClear
6:55 PM28.4 °F1.4 °F31 %30.26 in10.0 miWest (280°)3.5 mphClear
7:15 PM28.4 °F1.4 °F31 %30.26 in10.0 miWNW (290°)3.5 mphClear
7:35 PM28.4 °F1.4 °F31 %30.26 in10.0 miWest (280°)3.5 mphClear
7:55 PM24.8 °F3.2 °F40 %30.27 in10.0 miCalmClear
8:15 PM23.0 °F5.0 °F46 %30.26 in10.0 miCalmClear
8:35 PM23.0 °F8.6 °F54 %30.27 in10.0 miCalmClear
8:55 PM21.2 °F10.4 °F63 %30.28 in10.0 miCalmClear
9:15 PM21.2 °F10.4 °F63 %30.28 in10.0 miCalmClear
9:35 PM21.2 °F10.4 °F63 %30.28 in10.0 miCalmClear
9:55 PM19.4 °F10.4 °F68 %30.28 in10.0 miCalmClear
10:15 PM19.4 °F10.4 °F68 %30.29 inCalmClear
10:35 PM17.6 °F10.4 °F73 %30.30 in10.0 miCalmClear
10:55 PM19.4 °F12.2 °F74 %30.30 in10.0 miCalmClear
11:15 PM21.2 °F6.8 °F54 %30.31 in10.0 miCalmClear
11:35 PM19.4 °F8.6 °F63 %30.30 in10.0 miCalmClear
11:55 PM19.4 °F12.2 °F74 %30.31 in10.0 miCalmClear
Hourly data recorded from KEMV, located miles away from Emporia, Virginia







STORIES FROM OUR PARTNERS